Sun 27.06.10
(Preview)
Events
3
866
A new sunspot 11084 has emerged near the Suns eastern limb. Expand (136kb, 560 x 560) Credit SOHO/MDI
Kreutz sungrazer
(Preview)
Solar System
0
1980
A Kreutz group comet was discovered in real time SOHO C2 images on the 6th July, 2010.
Holographic Radar
(Preview)
Off Topic
0
552
The bomb was one of countless pieces of unexploded ordinance (UXO) buried in the ground in Laos and numerous other locations across the globe. UXO poses a serious danger to people, in many cases, decades after it is dropped. For several years, Bechtel has been working with an international team of sc...
Daphnis
(Preview)
Solar System
8
12418
S/2005 S 1 = XXXV Daphnis
Daphnis was discovered on May 1, 2005 by the Cassini Imaging Science Team.
The name comes from the shepherd, pipes player, and pastoral poet in Greek mythology.
Daphnis was the son of Hermes, brother of Pan, and descendant of the Titans.
[img]http://st...
Asteroid 2010 KQ
(
1 2
)
(Preview)
Solar System
15
2991
Orbital elements: 2010 KQ Earth MOID = 0.0066 AU Epoch 2010 July 23.0 TT = JDT 2455400.5 MPC M 112.41682 (2000.0) P Q n 0.95066128 Peri. 60.30283 -0.99234883 +0.12346162 a 1.0243590 Node 126.78908 -0.11371024 -0.91071183 e 0.0082003 Incl. 0.07248 -0.04810176 -0.39415884 P 1.04 H 28.3 G 0.15 U 5 [ur...
Abell 2345
(Preview)
Cosmology News
0
2822
Title: The complex structure of Abell 2345: a galaxy cluster with non-symmetric radio relics Authors: Walter Boschin, Rafael Barrena, Marisa Girardi We aim to obtain new insights into the internal dynamics of the cluster Abell 2345. This cluster exhibits two non-symmetric radio relics well stu...
Occultation of Regulus
(Preview)
Videos
1
2456
Occultation of Regulus Click to Play | View Details
Asteroid 2010 NG
(Preview)
Solar System
2
534
Orbital elements: 2010 NG Earth MOID = 0.0145 AU Epoch 2010 July 23.0 TT = JDT 2455400.5 MPC M 354.13335 (2000.0) P Q n 0.51951026 Peri. 207.39760 +0.69070300 +0.70982769 a 1.5325217 Node 106.65414 -0.63428271 +0.68640409 e 0.3439391 Incl. 8.28839 -0.34729643 +0.15809513 P 1.90 H 24.8 G 0.15 U 7 [u...
Asteroid 2010 NM
(Preview)
Solar System
1
522
Orbital elements: 2010 NM Earth MOID = 0.0508 AU Epoch 2010 July 23.0 TT = JDT 2455400.5 MPC M 251.36796 (2000.0) P Q n 1.02628655 Peri. 318.43377 +0.41982374 -0.86697994 a 0.9733976 Node 105.13658 +0.88872542 +0.33266178 e 0.1500771 Incl. 16.15001 +0.18416071 +0.37105514 P 0.96 H 24.3 G 0.15 U 8 [...
Asteroid 2010 NL
(Preview)
Solar System
1
585
Orbital elements: 2010 NL Earth MOID = 0.0234 AU Epoch 2010 July 23.0 TT = JDT 2455400.5 MPC M 348.49788 (2000.0) P Q n 0.46052851 Peri. 50.89974 +0.89282244 +0.42655732 a 1.6607275 Node 283.41825 -0.44534967 +0.78805351 e 0.4314520 Incl. 8.55077 -0.06731831 +0.44386993 P 2.14 H 25.9 G 0.15 U 8 [ur...
Asteroid 2006 WF129
(Preview)
Solar System
0
406
Orbital elements: 2006 WF129 Earth MOID = 0.3636 AU Epoch 2010 July 23.0 TT = JDT 2455400.5 MPC M 320.84575 (2000.0) P Q n 0.22881526 Peri. 124.92935 +0.76853696 -0.51983297 a 2.6473583 Node 269.20651 +0.39395068 +0.84384220 e 0.5309799 Incl. 21.90260 +0.50413669 +0.13305646 P 4.31 H 19.2 G 0.15...
Asteroid 2009 MS
(Preview)
Solar System
3
463
Orbital elements: 2009 MS PHA, Earth MOID = 0.0301 AU Epoch 2009 June 18.0 TT = JDT 2455000.5 MPC M 124.43361 (2000.0) P Q n 0.35241197 Peri. 220.83702 -0.15293186 -0.67317540 a 1.9850386 Node 251.06521 +0.98094104 -0.19220168 e 0.5609925 Incl. 49.89678 -0.11986047 -0.71406820 P 2.80 H 16.1 G 0.1...
ISRO Saudi cooperation
(Preview)
General news
0
543
Saudi scientists to visit India to seek ISRO's cooperation A delegation of scientists from Saudi Arabia are set to visit India to ink an agreement with space agency ISRO for boosting cooperation that will help the country develop an indigenous space programme. The Saudi delegation, comprising of...
183.81.27.147
(Preview)
Banned
0
4263
User larryp7639 from the IP address 183.81.27.147 will no longer be allowed to post. Reason: spamming
Sun 03.07.10
(Preview)
Events
2
768
Large coronal mass ejection. Expand (136kb, 560 x 560) Credit SOHO/MDI (The bright object is Mercury)
«First < 1
1888 1889 1890 1891 1892
2461 > Last» | Page
